Regional Weather Roundup
Issued by NWS

Home | Current Version | Previous Version | Text Only | Print | Product List | Glossary On
Versions: 1 2 3 4 5 6 7 8 9 10 11 12 13 14 15 16 17 18 19 20 21 22 23 24 25 26 27 28 29 30 31 32 33 34 35 36 37 38 39 40 41 42 43 44 45 46 47 48 49 50
000
ASUS43 KOAX 281110
RWRNE

WEATHER ROUNDUP FOR NEBRASKA
NATIONAL WEATHER SERVICE OMAHA NE
600 AM CDT TUE JUN 28 2016

NOTES: SATELLITE DATA IS BEING USED TO AUGMENT CLOUD COVER ABOVE
       12000 FEET.
       "FAIR" INDICATES FEW OR NO CLOUDS BELOW 12,000 FEET WITH NO
       SIGNIFICANT WEATHER AND/OR OBSTRUCTIONS TO VISIBILITY.

  * THESE STATIONS DO NOT REPORT WEATHER SUCH AS RAIN...SNOW OR FOG.

NEZ001>004-019>022-054>056-281200-
NEBRASKA PANHANDLE

CITY           SKY/WX    TMP DP  RH WIND       PRES   REMARKS
SCOTTSBLUFF    CLEAR     61  57  87 E6        30.28F
ALLIANCE       CLEAR     59  57  93 S7        30.27F
CHADRON        CLEAR     56  54  93 NE5       30.24S
KIMBALL        CLOUDY    61  60  98 S13       30.34F FOG
SIDNEY         CLEAR     61  58  90 S9        30.33S
$$

NEZ057>060-069>072-079>082-281200-
SOUTHWEST NEBRASKA

CITY           SKY/WX    TMP DP  RH WIND       PRES   REMARKS
NORTH PLATTE   CLEAR     59  58  96 N3        30.25F
IMPERIAL       CLOUDY    66  61  84 S14       30.25F THUNDER
LEXINGTON      CLEAR     61  58  90 E6        30.24F
MCCOOK         CLEAR     63  59  87 E5        30.24R
OGALLALA       MOCLDY    63  58  83 CALM      30.26F
$$

NEZ005>010-023>029-035>040-094-281200-
NORTH CENTRAL NEBRASKA

CITY           SKY/WX    TMP DP  RH WIND       PRES   REMARKS
VALENTINE      CLEAR     58  55  90 CALM      30.26S
AINSWORTH      CLEAR     55  54  97 CALM      30.26S FOG
BROKEN BOW     CLEAR     56  53  90 CALM      30.26R
O`NEILL        CLEAR     58  56  93 CALM      30.26R
ORD            CLEAR     56  54  93 CALM      30.24R
THEDFORD       CLEAR     58  57  97 CALM      30.28R
$$

NEZ041-046>049-061>064-073>077-083>087-281200-
SOUTH CENTRAL NEBRASKA

CITY           SKY/WX    TMP DP  RH WIND       PRES   REMARKS
GRAND ISLAND   CLEAR     62  59  90 CALM      30.24S
AURORA         CLEAR     61  60  94 NE3       30.23F
HASTINGS       MOCLDY    63  59  87 E5        30.23S
HEBRON         CLOUDY    66  65  96 CALM      30.22R
HOLDREGE       CLEAR     63  60  90 E8        30.23F
KEARNEY *      CLOUDY    63  61  94 NE6       30.24F
YORK           PTCLDY    63  59  88 CALM      30.23R
$$

NEZ011>018-030>034-042>045-281200-
NORTHEAST NEBRASKA

CITY           SKY/WX    TMP DP  RH WIND       PRES   REMARKS
NORFOLK        CLEAR     58  54  86 CALM      30.23R
ALBION         CLEAR     57  54  91 CALM      30.25R
BLAIR          PTCLDY    65  59  80 NE5       30.22S
FREMONT        PTCLDY    66  58  75 E5        30.22R
TEKAMAH        CLEAR     60  56  86 N6        30.22R
WAYNE          CLEAR     55  54  96 N3        30.24S
$$

NEZ050>053-065>068-078-088>093-281200-
SOUTHEAST NEBRASKA

CITY           SKY/WX    TMP DP  RH WIND       PRES   REMARKS
LINCOLN        PTCLDY    67  61  81 N6        30.22R
OMAHA EPPLEY   PTCLDY    65  59  81 N5        30.21R
BEATRICE       CLOUDY    69  60  71 E3        30.21R
FALLS CITY     CLOUDY    70  64  81 NE7       30.17R
NEBRASKA CITY  CLOUDY    67  62  84 E3        30.20R
PLATTSMOUTH    CLOUDY    68  62  80 NE3       30.21R
$$

NEZ044-045-051>053-067-281200-
OMAHA AREA

CITY           SKY/WX    TMP DP  RH WIND       PRES   REMARKS
OMAHA EPPLEY   PTCLDY    65  59  81 N5        30.21R
BLAIR          PTCLDY    65  59  80 NE5       30.22S
FREMONT        PTCLDY    66  58  75 E5        30.22R
MILLARD        PTCLDY    69  59  70 CALM      30.21S
OFFUTT AFB     PTCLDY    67  59  76 NE5       30.20S
PLATTSMOUTH    CLOUDY    68  62  80 NE3       30.21R
WAHOO          PTSUNNY   67  61  81 NE3       30.22S
$$




USA.gov is the U.S. government's official web portal to all federal, state and local government web resources and services.